Hourly Data Report for July 20, 2021

FISHER BRANCH (AUT)
MANITOBA
Current Station Operator: ECCC - MSC

51°05'00.100" N
97°33'16.200" W
253.00 m
50309J6
71442
WSZ

Download Data

Hourly Data (July 2021)
Hourly Data Report for July 20, 2021
TIME
LST
Temp Definition
°C
Dew Point Definition
°C
Rel Hum Definition
%
Precip. Amount Definition
mm

Wind Dir Definition
10's deg

Wind Spd Definition
km/h
Visibility Definition
km
Stn Press Definition
kPa
Hmdx Definition


Wind Chill Definition


Weather Definition


00:00 14.7 12.9 88 0.0 8 11   99.20     LegendNANA
01:00 14.3 12.7 90 0.0 7 9   99.18     LegendNANA
02:00 12.9 11.5 91 0.0 12 2   99.25     LegendNANA
03:00 12.9 12.1 95 0.0 7 9   99.15     LegendNANA
04:00 13.0 12.1 94 0.0 7 11   99.13     LegendNANA
05:00 12.6 11.8 94 0.0 9 6   99.19     LegendNANA
06:00 14.0 13.1 94 0.0 8 10   99.17     LegendNANA
07:00 15.5 14.0 91 0.0 9 5   99.23     LegendNANA
08:00 17.1 14.7 86 0.0 11 8   99.23     LegendNANA
09:00 18.2 14.6 79 0.0 12 13   99.19     LegendNANA
10:00 19.4 14.4 73 0.0 11 12   99.19     LegendNANA
11:00 20.2 14.2 68 0.0 11 9   99.21     LegendNANA
12:00 20.0 14.6 71 0.0 11 13   99.15     LegendNANA
13:00 20.5 14.7 69 0.0 12 15   99.10     LegendNANA
14:00 20.1 14.5 70 0.0 10 15   99.04     LegendNANA
15:00 20.9 14.9 69 0.0 11 17   98.97 25   LegendNANA
16:00 21.5 15.0 66 0.0 13 18   98.86 25   LegendNANA
17:00 21.3 15.6 70 0.0 20 12   98.98 26   LegendNANA
18:00 20.6 16.0 75 0.0 10 5   98.91 25   LegendNANA
19:00 20.6 16.3 77 0.0 11 7   98.86 25   LegendNANA
20:00 20.1 15.9 77 0.0 14 10   98.85 25   LegendNANA
21:00 19.6 15.9 79 0.0 14 10   98.86     LegendNANA
22:00 18.5 15.7 84 0.0 14 7   98.82     LegendNANA
23:00 18.6 16.2 86 0.0 13 9   98.83     LegendNANA

Notes on Data Quality.

Legend

  • E = Estimated
  • M = Missing
  • NA = Not Available*
  • [empty] = Indicates an unobserved value
Date modified: